Weather History for Bangkok (Don Mueang), Thailand

Change the Weather History Date:

Monday, December 3, 2012

  Actual Average Record
Temperature  
Mean Temperature 86 °F -  
Max Temperature 91 °F 86 °F 95 °F (1998)
Min Temperature 80 °F 71 °F 68 °F (2013)
Cooling Degree Days 20    
Growing Degree Days 36 (Base 50)    
Moisture  
Dew Point 74 °F    
Average Humidity 69    
Maximum Humidity 89    
Minimum Humidity 40    
Precipitation  
Precipitation 0.00 in 0.02 in - ()
Sea Level Pressure  
Sea Level Pressure 29.83 in    
Wind  
Wind Speed 1 mph ()    
Max Wind Speed 9 mph    
Max Gust Speed -    
Visibility 5.2 miles    
Events      
Averages and records for this station are not official NWS values.
T = Trace of Precipitation, MM = Missing Value Source: Averaged Metar Reports

Daily Weather History Graph

Daily Weather History Graph

Search for Another Location

Airport:

Trip Planner

Search our weather history database for the weather conditions in past years. The results will help you decide how hot, cold, wet, or windy it might be!

Date:

Astronomy

Dec. 03, 2012 Rise Set
Actual Time 6:26 AM ICT 5:48 PM ICT
Civil Twilight 6:03 AM ICT 6:11 PM ICT
Nautical Twilight 5:37 AM ICT 6:37 PM ICT
Astronomical Twilight 5:11 AM ICT 7:03 PM ICT
Moon 9:42 PM ICT (12/3) 9:49 AM ICT (12/3)
Length of Visible Light 12h 07m
Length of Day
11h 21m
Waning Gibbous, 82% of the Moon is Illuminated
Dec 3
Waning Gibbous
Dec 6
Last Quarter
Dec 13
New
Dec 20
First Quarter
Dec 28
Full

Hourly Weather History & Observations

Time (ICT) Temp. Heat Index Dew Point Humidity Pressure Visibility Wind Dir Wind Speed Gust Speed Precip Events Conditions
12:00 AM 84.2 °F 92.3 °F 75.2 °F 74% 29.86 in 5.6 mi Calm Calm - N/A   Scattered Clouds
12:30 AM 84.2 °F 92.3 °F 75.2 °F 74% 29.86 in 5.6 mi Calm Calm - N/A   Scattered Clouds
1:00 AM 83 °F - 75 °F 72% 29.86 in 6 mi Calm Calm - -   Mist
1:00 AM 82.4 °F 89.5 °F 75.2 °F 79% 29.86 in 5.6 mi Calm Calm - N/A   Scattered Clouds
1:30 AM 82.4 °F 89.5 °F 75.2 °F 79% 29.83 in 4.3 mi Calm Calm - N/A   Scattered Clouds
2:00 AM 82.4 °F 89.5 °F 75.2 °F 79% 29.83 in 5.0 mi Calm Calm - N/A   Scattered Clouds
2:30 AM 82.4 °F 89.5 °F 75.2 °F 79% 29.83 in 5.0 mi Calm Calm - N/A   Scattered Clouds
3:00 AM 82.4 °F 89.5 °F 75.2 °F 79% 29.83 in 5.0 mi Calm Calm - N/A   Scattered Clouds
3:30 AM 82.4 °F 90.9 °F 77.0 °F 84% 29.83 in 4.3 mi Calm Calm - N/A   Scattered Clouds
4:00 AM 80.6 °F 87.1 °F 77.0 °F 89% 29.80 in 4.3 mi Calm Calm - N/A   Scattered Clouds
4:30 AM 80.6 °F 87.1 °F 77.0 °F 89% 29.80 in 4.3 mi Calm Calm - N/A   Scattered Clouds
5:00 AM 80.6 °F 87.1 °F 77.0 °F 89% 29.80 in 4.3 mi Calm Calm - N/A   Scattered Clouds
5:30 AM 80.6 °F 87.1 °F 77.0 °F 89% 29.80 in 4.3 mi Calm Calm - N/A   Scattered Clouds
6:00 AM 80.6 °F 87.1 °F 77.0 °F 89% 29.83 in 4.3 mi Calm Calm - N/A   Scattered Clouds
6:30 AM 80.6 °F 87.1 °F 77.0 °F 89% 29.83 in 3.1 mi Calm Calm - N/A   Scattered Clouds
7:00 AM 81 °F - 75 °F 78% 29.86 in 4 mi Calm Calm - -   Mist
7:00 AM 80.6 °F 86.2 °F 75.2 °F 84% 29.86 in 3.7 mi Calm Calm - N/A   Mostly Cloudy
7:30 AM 80.6 °F 86.2 °F 75.2 °F 84% 29.86 in 3.7 mi Calm Calm - N/A   Mostly Cloudy
8:00 AM 82.4 °F 89.5 °F 75.2 °F 79% 29.86 in 3.7 mi Calm Calm - N/A   Mostly Cloudy
8:30 AM 82.4 °F 89.5 °F 75.2 °F 79% 29.89 in 3.7 mi East 2.3 mph - N/A   Mostly Cloudy
9:00 AM 84.2 °F 94.1 °F 77.0 °F 79% 29.89 in 3.7 mi ENE 2.3 mph - N/A   Mostly Cloudy
9:30 AM 86.0 °F 96.9 °F 77.0 °F 74% 29.89 in 3.7 mi East 2.3 mph - N/A   Mostly Cloudy
10:00 AM 87.8 °F 99.7 °F 77.0 °F 70% 29.89 in 3.7 mi Calm Calm - N/A   Mostly Cloudy
10:30 AM 87.8 °F 95.6 °F 73.4 °F 62% 29.89 in 4.3 mi NNE 4.6 mph - N/A   Mostly Cloudy
11:00 AM 89.6 °F 98.2 °F 73.4 °F 59% 29.89 in 5.0 mi NNW 3.5 mph - N/A   Mostly Cloudy
11:30 AM 89.6 °F 98.2 °F 73.4 °F 59% 29.89 in 5.0 mi ESE 3.5 mph - N/A   Mostly Cloudy
12:00 PM 89.6 °F 98.2 °F 73.4 °F 59% 29.89 in 6.2 mi NNE 3.5 mph - N/A   Mostly Cloudy
12:30 PM 89.6 °F 98.2 °F 73.4 °F 59% 29.86 in 6.2 mi ENE 2.3 mph - N/A   Mostly Cloudy
1:00 PM 91 °F - 69 °F 40% 29.85 in 6 mi SSE 3.5 mph - -   Scattered Clouds
1:00 PM 91.4 °F 96.8 °F 69.8 °F 49% 29.83 in 6.2 mi SSE 3.5 mph - N/A   Mostly Cloudy
1:30 PM 91.4 °F 96.8 °F 69.8 °F 49% 29.80 in 6.2 mi South 3.5 mph - N/A   Mostly Cloudy
2:00 PM 91.4 °F 95.4 °F 68.0 °F 46% 29.80 in 6.2 mi SSE 8.1 mph - N/A   Mostly Cloudy
2:30 PM 91.4 °F 96.8 °F 69.8 °F 49% 29.80 in 6.2 mi East 5.8 mph - N/A   Mostly Cloudy
3:00 PM 91.4 °F 95.4 °F 68.0 °F 46% 29.77 in 6.2 mi SSE 9.2 mph - N/A   Scattered Clouds
3:30 PM 91.4 °F 98.4 °F 71.6 °F 52% 29.77 in 6.2 mi South 5.8 mph - N/A   Scattered Clouds
4:00 PM 91.4 °F 96.8 °F 69.8 °F 49% 29.77 in 6.2 mi East 3.5 mph - N/A   Scattered Clouds
4:30 PM 89.6 °F 96.2 °F 71.6 °F 55% 29.77 in 6.2 mi ESE 5.8 mph - N/A   Scattered Clouds
5:00 PM 89.6 °F 94.7 °F 69.8 °F 52% 29.77 in 6.2 mi ESE 4.6 mph - N/A   Scattered Clouds
5:30 PM 89.6 °F 96.2 °F 71.6 °F 55% 29.77 in 6.2 mi SSE 3.5 mph - N/A   Scattered Clouds
6:00 PM 87.8 °F 93.8 °F 71.6 °F 58% 29.77 in 6.2 mi SSE 2.3 mph - N/A   Scattered Clouds
6:30 PM 87.8 °F 92.6 °F 69.8 °F 55% 29.80 in 6.2 mi ESE 3.5 mph - N/A   Mostly Cloudy
7:00 PM 87 °F - 72 °F 53% 29.82 in 6 mi ESE 2.3 mph - -   Scattered Clouds
7:00 PM 87.8 °F 95.6 °F 73.4 °F 62% 29.80 in 6.2 mi ESE 2.3 mph - N/A   Mostly Cloudy
7:30 PM 86.0 °F 93.4 °F 73.4 °F 66% 29.83 in 6.2 mi Calm Calm - N/A   Mostly Cloudy
8:00 PM 86.0 °F 93.4 °F 73.4 °F 66% 29.83 in 6.2 mi WNW 3.5 mph - N/A   Mostly Cloudy
8:30 PM 84.2 °F 92.3 °F 75.2 °F 74% 29.83 in 6.2 mi West 5.8 mph - N/A   Mostly Cloudy
9:00 PM 84.2 °F 92.3 °F 75.2 °F 74% 29.86 in 6.2 mi West 4.6 mph - N/A   Mostly Cloudy
10:00 PM 82.4 °F 88.2 °F 73.4 °F 74% 29.86 in 6.2 mi SSW 5.8 mph - N/A   Mostly Cloudy
10:30 PM 82.4 °F 88.2 °F 73.4 °F 74% 29.86 in 5.0 mi SSW 4.6 mph - N/A   Mostly Cloudy
11:00 PM 82.4 °F 88.2 °F 73.4 °F 74% 29.86 in 5.0 mi SSW 3.5 mph - N/A   Mostly Cloudy
11:30 PM 84.2 °F 90.9 °F 73.4 °F 70% 29.86 in 5.0 mi SW 3.5 mph - N/A   Mostly Cloudy